When you browse on this site, cookies collect data to enhance your experience and personalize the content and advertising you see.
Visit our Privacy Policy to learn more. By continuing to use the site, you agree to this use of cookies and data.

Hourly Weather Chihuahua

Today, 28 September, Monday

Time Temperature Precipitation Wind Pressure Humidity
00:00 +25°C° 0 mm 2 mps 642 mmHg 32%
01:00 +24°C° 0 mm 2 mps 642 mmHg 33%
02:00 +24°C° 0 mm 2 mps 641 mmHg 34%
03:00 +22°C° 0 mm 3 mps 642 mmHg 34%
04:00 +22°C° 0 mm 3 mps 642 mmHg 35%
05:00 +21°C° 0 mm 4 mps 643 mmHg 36%
06:00 +20°C° 0 mm 5 mps 643 mmHg 44%
07:00 +19°C° 0 mm 5 mps 644 mmHg 52%
08:00 +16°C° 0 mm 6 mps 644 mmHg 61%
09:00 +19°C° 0 mm 6 mps 645 mmHg 57%
10:00 +20°C° 0 mm 6 mps 645 mmHg 53%
11:00 +21°C° 0 mm 6 mps 646 mmHg 49%
12:00 +22°C° 0 mm 6 mps 646 mmHg 46%
13:00 +23°C° 0 mm 6 mps 645 mmHg 43%
14:00 +23°C° 0 mm 6 mps 645 mmHg 40%
15:00 +23°C° 0 mm 6 mps 645 mmHg 40%
16:00 +22°C° 0 mm 6 mps 645 mmHg 40%
17:00 +22°C° 0 mm 6 mps 645 mmHg 40%
18:00 +20°C° 0 mm 5 mps 646 mmHg 40%
19:00 +19°C° 0 mm 5 mps 646 mmHg 41%
20:00 +18°C° 0 mm 4 mps 647 mmHg 41%
21:00 +17°C° 0 mm 3 mps 647 mmHg 42%
22:00 +16°C° 0 mm 2 mps 647 mmHg 43%
23:00 +15°C° 0 mm 2 mps 647 mmHg 44%

Tomorrow, 29 September, Tuesday

Time Temperature Precipitation Wind Pressure Humidity
00:00 +15°C° 0 mm 1 mps 647 mmHg 45%
01:00 +15°C° 0 mm 1 mps 647 mmHg 47%
02:00 +14°C° 0 mm 1 mps 646 mmHg 48%
03:00 +14°C° 0 mm 1 mps 646 mmHg 50%
04:00 +12°C° 0 mm 0 mps 646 mmHg 51%
05:00 +12°C° 0 mm 0 mps 646 mmHg 53%
06:00 +14°C° 0 mm 1 mps 647 mmHg 49%
07:00 +15°C° 0 mm 1 mps 647 mmHg 44%
08:00 +16°C° 0 mm 1 mps 648 mmHg 40%
09:00 +18°C° 0 mm 2 mps 648 mmHg 36%
10:00 +19°C° 0 mm 3 mps 648 mmHg 31%
11:00 +21°C° 0 mm 4 mps 648 mmHg 27%
12:00 +22°C° 0 mm 4 mps 647 mmHg 24%
13:00 +22°C° 0 mm 4 mps 647 mmHg 22%
14:00 +24°C° 0 mm 3 mps 646 mmHg 19%
15:00 +24°C° 0 mm 3 mps 646 mmHg 19%
16:00 +24°C° 0 mm 3 mps 646 mmHg 19%
17:00 +24°C° 0 mm 3 mps 646 mmHg 19%
18:00 +21°C° 0 mm 2 mps 646 mmHg 22%
19:00 +19°C° 0 mm 2 mps 646 mmHg 26%
20:00 +18°C° 0 mm 1 mps 646 mmHg 29%
21:00 +18°C° 0 mm 1 mps 645 mmHg 30%
22:00 +16°C° 0 mm 1 mps 645 mmHg 32%
23:00 +16°C° 0 mm 1 mps 645 mmHg 33%

Day after tomorrow, 30 September, Wednesday

Time Temperature Precipitation Wind Pressure Humidity
00:00 +15°C° 0 mm 1 mps 645 mmHg 34%
01:00 +15°C° 0 mm 1 mps 644 mmHg 35%
02:00 +15°C° 0 mm 1 mps 644 mmHg 35%
03:00 +14°C° 0 mm 1 mps 644 mmHg 35%
04:00 +14°C° 0 mm 1 mps 644 mmHg 36%
05:00 +14°C° 0 mm 1 mps 644 mmHg 36%
06:00 +16°C° 0 mm 1 mps 645 mmHg 33%
07:00 +18°C° 0 mm 1 mps 645 mmHg 30%
08:00 +20°C° 0 mm 1 mps 646 mmHg 27%
09:00 +22°C° 0 mm 1 mps 646 mmHg 25%
10:00 +23°C° 0 mm 1 mps 646 mmHg 23%
11:00 +25°C° 0 mm 2 mps 646 mmHg 21%
12:00 +26°C° 0 mm 2 mps 646 mmHg 19%
13:00 +27°C° 0 mm 2 mps 646 mmHg 18%
14:00 +28°C° 0 mm 2 mps 645 mmHg 17%
15:00 +27°C° 0 mm 3 mps 645 mmHg 18%
16:00 +27°C° 0 mm 3 mps 645 mmHg 20%
17:00 +27°C° 0 mm 3 mps 645 mmHg 22%
18:00 +25°C° 0 mm 2 mps 644 mmHg 25%
19:00 +23°C° 0 mm 2 mps 644 mmHg 29%
20:00 +21°C° 0 mm 1 mps 644 mmHg 33%
21:00 +20°C° 0 mm 1 mps 644 mmHg 33%
22:00 +20°C° 0 mm 1 mps 644 mmHg 34%
23:00 +19°C° 0 mm 1 mps 644 mmHg 35%

1 October, Thursday

Time Temperature Precipitation Wind Pressure Humidity
00:00 +17°C° 0 mm 0 mps 644 mmHg 36%
01:00 +16°C° 0 mm 0 mps 643 mmHg 37%
02:00 +16°C° 0 mm 0 mps 643 mmHg 38%
03:00 +15°C° 0 mm 0 mps 643 mmHg 38%
04:00 +15°C° 0 mm 0 mps 643 mmHg 38%
05:00 +14°C° 0 mm 0 mps 643 mmHg 38%
06:00 +16°C° 0 mm 0 mps 644 mmHg 33%
07:00 +19°C° 0 mm 0 mps 645 mmHg 28%
08:00 +21°C° 0 mm 0 mps 646 mmHg 23%
09:00 +24°C° 0 mm 1 mps 646 mmHg 22%
10:00 +25°C° 0 mm 2 mps 646 mmHg 20%
11:00 +27°C° 0 mm 3 mps 646 mmHg 19%
12:00 +27°C° 0 mm 3 mps 645 mmHg 18%
13:00 +28°C° 0 mm 3 mps 645 mmHg 17%
14:00 +28°C° 0 mm 3 mps 645 mmHg 17%
15:00 +28°C° 0 mm 3 mps 644 mmHg 19%
16:00 +28°C° 0 mm 2 mps 644 mmHg 20%
17:00 +27°C° 0 mm 2 mps 644 mmHg 22%
18:00 +25°C° 0 mm 2 mps 644 mmHg 26%
19:00 +23°C° 0 mm 1 mps 644 mmHg 30%
20:00 +20°C° 0 mm 0 mps 644 mmHg 34%
21:00 +19°C° 0 mm 0 mps 644 mmHg 33%
22:00 +21°C° 0 mm 1 mps 644 mmHg 32%
23:00 +20°C° 0 mm 1 mps 644 mmHg 31%

2 October, Friday

Time Temperature Precipitation Wind Pressure Humidity
00:00 +20°C° 0 mm 1 mps 644 mmHg 33%
01:00 +19°C° 0 mm 1 mps 643 mmHg 34%
02:00 +18°C° 0 mm 1 mps 643 mmHg 36%
03:00 +18°C° 0 mm 1 mps 643 mmHg 37%
04:00 +16°C° 0 mm 1 mps 643 mmHg 39%
05:00 +15°C° 0 mm 0 mps 643 mmHg 40%
06:00 +18°C° 0 mm 1 mps 644 mmHg 36%
07:00 +20°C° 0 mm 1 mps 644 mmHg 32%
08:00 +22°C° 0 mm 1 mps 645 mmHg 27%
09:00 +23°C° 0 mm 1 mps 645 mmHg 25%
10:00 +25°C° 0 mm 2 mps 645 mmHg 23%
11:00 +26°C° 0 mm 2 mps 645 mmHg 21%
12:00 +27°C° 0 mm 3 mps 645 mmHg 20%
13:00 +28°C° 0 mm 3 mps 644 mmHg 20%
14:00 +28°C° 0 mm 3 mps 644 mmHg 19%
15:00 +28°C° 0 mm 3 mps 644 mmHg 20%
16:00 +27°C° 0 mm 3 mps 643 mmHg 22%
17:00 +27°C° 0 mm 3 mps 643 mmHg 23%
18:00 +25°C° 0 mm 3 mps 643 mmHg 25%
19:00 +24°C° 0 mm 2 mps 643 mmHg 27%
20:00 +21°C° 0 mm 2 mps 643 mmHg 29%
21:00 +20°C° 0 mm 2 mps 643 mmHg 31%
22:00 +21°C° 0 mm 1 mps 643 mmHg 33%
23:00 +20°C° 0 mm 1 mps 643 mmHg 35%

3 October, Saturday

Time Temperature Precipitation Wind Pressure Humidity
00:00 +20°C° 0 mm 1 mps 643 mmHg 36%
01:00 +19°C° 0 mm 1 mps 642 mmHg 37%
02:00 +19°C° 0 mm 1 mps 642 mmHg 38%
03:00 +18°C° 0 mm 1 mps 642 mmHg 40%
04:00 +18°C° 0 mm 1 mps 642 mmHg 41%
05:00 +16°C° 0 mm 1 mps 641 mmHg 42%
06:00 +19°C° 0 mm 1 mps 642 mmHg 38%
07:00 +21°C° 0 mm 1 mps 643 mmHg 34%
08:00 +23°C° 0 mm 2 mps 644 mmHg 30%
09:00 +24°C° 0 mm 1 mps 644 mmHg 27%
10:00 +26°C° 0 mm 1 mps 644 mmHg 24%
11:00 +28°C° 0 mm 1 mps 644 mmHg 21%
12:00 +28°C° 0 mm 1 mps 644 mmHg 19%
13:00 +29°C° 0 mm 1 mps 643 mmHg 17%
14:00 +30°C° 0 mm 2 mps 643 mmHg 15%
15:00 +29°C° 0 mm 2 mps 643 mmHg 16%
16:00 +29°C° 0 mm 2 mps 643 mmHg 18%
17:00 +29°C° 0 mm 3 mps 643 mmHg 19%
18:00 +27°C° 0 mm 2 mps 643 mmHg 21%
19:00 +25°C° 0 mm 2 mps 643 mmHg 23%
20:00 +23°C° 0 mm 2 mps 642 mmHg 26%
21:00 +21°C° 0 mm 2 mps 642 mmHg 27%
22:00 +21°C° 0 mm 2 mps 643 mmHg 29%
23:00 +21°C° 0 mm 1 mps 643 mmHg 31%
Show more